Theta_e
308 307 306 305 304 303 302 302 302 303 305 305 303 301 299 297 296 293 293 293 293 293 294 294 294 294 294 295 295 296 298 299 301 304 307 308 308 307 306 306 307 308 309
307 306 305 305 304 303 302 301 301 301 304 305 305 304 300 296 295 292 291 291 292 292 292 292 292 292 293 293 294 295 295 299 300 301 303 303 307 305 305 304 303 303 304
308 306 304 304 304 303 301 301 300 300 302 304 304 302 299 296 294 291 291 290 291 291 291 291 292 292 292 292 291 292 294 294 298 300 300 301 303 302 305 302 301 301 301
308 307 304 302 304 304 302 301 299 298 298 301 302 301 300 298 296 291 290 290 289 290 290 291 292 292 291 291 291 291 292 294 294 294 298 299 299 303 303 301 299 299 299
307 306 304 304 304 304 302 300 299 297 296 297 300 301 301 299 294 291 290 290 289 289 290 291 291 291 291 290 291 291 291 291 292 294 293 294 298 298 299 300 300 298 297
306 306 305 304 304 303 302 300 298 296 294 294 295 296 296 295 291 290 290 290 289 288 289 290 290 290 289 289 289 290 290 290 291 291 292 293 293 293 294 296 296 295 296
306 305 303 303 303 302 300 298 297 295 294 293 292 293 293 292 291 291 290 290 289 288 289 289 289 288 288 288 288 288 288 289 289 290 290 290 292 293 292 292 292 293 294
305 305 304 303 302 301 299 297 296 295 293 292 291 291 291 291 291 290 290 289 288 288 288 288 287 287 287 287 287 287 286 286 287 288 288 288 289 290 291 291 290 289 291
299 298 297 300 300 299 298 297 296 294 293 292 290 290 290 289 289 288 288 287 288 288 287 287 287 287 286 286 286 286 286 286 286 286 287 287 288 288 289 291 290 290 289
292 291 290 290 293 297 298 297 295 294 293 291 290 289 288 288 288 287 287 287 287 287 286 286 286 286 286 286 285 285 286 285 285 285 285 286 286 287 288 288 289 289 289
291 290 289 289 289 290 291 291 292 292 291 290 289 289 288 287 287 287 287 287 286 286 286 286 285 285 285 285 285 285 285 285 285 285 285 285 285 285 286 286 286 287 288
291 290 289 288 288 289 289 289 288 288 287 287 287 287 286 286 287 290 287 286 286 286 286 285 285 285 284 284 284 284 284 285 285 285 285 285 284 284 284 285 285 286 286
291 290 288 287 287 287 288 288 288 288 288 287 287 287 288 288 287 286 286 286 286 286 285 285 284 284 283 283 283 283 283 283 284 284 284 284 284 283 283 284 285 285 285
291 289 287 286 285 285 285 286 286 286 286 286 286 286 286 285 286 286 286 286 285 285 285 284 284 283 283 282 282 282 282 282 283 284 284 283 283 283 282 283 284 285 285
289 288 286 285 284 284 284 284 284 284 285 285 285 285 285 286 286 286 285 285 285 284 284 283 283 282 282 281 281 281 282 281 282 282 283 283 283 283 282 281 282 284 284
287 286 285 284 283 283 282 282 282 283 283 284 284 284 284 285 285 285 285 284 284 284 283 282 282 282 282 281 282 283 283 282 282 281 281 282 283 283 284 284 284 284 283
285 284 283 282 282 282 281 280 280 281 282 283 283 283 283 284 284 284 284 283 283 283 282 282 281 281 281 281 282 283 283 283 282 281 281 281 281 283 282 282 283 284 285
284 283 282 281 281 281 280 280 280 279 280 280 281 281 281 281 281 282 282 282 281 281 281 281 281 280 280 280 281 282 282 282 282 281 280 280 280 281 282 281 281 281 280
282 282 281 280 280 280 279 279 280 279 279 279 279 279 279 279 279 279 280 280 280 280 280 280 279 279 279 279 280 281 281 280 280 280 280 279 278 279 282 282 281 281 281
280 280 278 279 279 278 277 277 278 279 278 278 278 278 277 277 277 277 277 278 278 279 278 278 277 277 277 277 278 279 279 279 279 279 279 279 279 280 281 281 281 281 281
278 278 277 277 277 276 276 276 276 276 275 275 275 275 275 275 275 275 276 276 276 277 277 276 276 276 275 276 277 278 279 279 279 278 278 278 279 280 282 282 281 281 281
276 276 276 276 275 275 275 275 274 274 274 274 274 274 274 274 274 274 274 274 274 274 275 275 275 275 275 275 276 277 278 279 279 279 279 278 279 280 281 282 282 283 282
275 275 275 274 274 274 274 273 273 272 272 272 272 273 273 273 273 273 273 274 274 274 274 274 274 274 274 275 276 277 278 279 280 280 280 280 280 280 281 282 282 283 282
274 274 273 273 272 273 272 271 271 271 271 271 271 272 272 272 273 272 272 272 273 273 273 273 274 274 274 274 275 275 276 276 277 277 278 279 281 281 280 281 282 282 281
273 272 272 271 271 271 270 270 270 270 270 270 270 270 270 271 271 271 271 271 272 273 273 274 274 274 274 275 276 276 276 276 276 277 276 277 277 278 280 281 281 281 280
271 270 270 270 269 269 269 269 269 269 269 269 269 269 270 269 270 270 270 270 272 273 274 275 276 276 277 278 279 279 279 279 279 280 278 277 277 277 279 280 280 280 279
Wind_Speed
10 22 26 26 22 19 17 15 13 11 12 14 12 7 6 7 8 9 10 10 10 11 11 12 13 14 17 17 17 14 17 21 17 7 8 15 22 24 24 24 22 20 16
7 13 24 26 25 23 19 16 13 12 12 11 10 5 9 6 7 7 8 8 8 9 10 11 13 14 13 15 17 17 15 13 19 9 3 3 3 13 17 19 21 20 17
11 10 17 27 25 23 21 18 15 12 12 10 10 10 9 9 6 6 7 7 7 8 8 9 10 11 12 14 15 15 14 13 11 14 6 3 2 5 5 13 16 17 17
7 8 14 19 28 24 20 17 15 12 11 11 11 11 8 8 7 7 6 6 6 7 7 7 8 9 9 10 11 11 12 9 12 5 6 4 2 2 2 3 11 14 14
8 10 14 22 27 22 21 18 15 12 11 10 10 10 9 7 8 8 7 5 5 5 6 5 5 6 7 8 8 8 9 8 7 7 6 4 1 2 2 3 3 8 9
7 5 9 14 19 18 18 18 16 13 10 9 8 8 8 9 11 10 8 6 4 3 3 3 3 4 5 6 7 6 5 4 4 4 4 4 2 1 1 2 3 6 2
6 6 8 13 16 18 19 17 15 13 10 8 7 7 7 8 9 9 9 7 5 3 2 0 2 3 4 5 5 4 4 5 3 3 3 2 2 3 3 2 2 1 3
4 4 5 11 16 18 19 16 15 13 11 8 7 6 6 6 8 7 8 6 5 4 2 2 2 3 3 3 4 3 3 4 3 2 3 3 2 3 4 3 1 2 2
11 11 13 10 6 11 14 13 12 9 8 7 7 7 6 7 7 6 6 5 4 4 4 4 4 3 3 3 3 4 4 4 4 3 3 3 3 3 4 5 6 3 1
14 12 16 19 17 7 5 5 5 6 6 6 6 7 7 7 7 7 7 6 7 7 6 6 5 5 5 6 6 5 4 5 3 3 3 3 4 4 5 6 7 8 10
12 9 13 18 20 19 15 11 6 4 5 6 6 7 6 6 6 7 6 8 7 6 6 6 7 9 9 8 8 8 7 6 5 5 5 4 5 5 5 6 7 7 8
10 8 13 14 17 17 16 14 12 10 7 3 5 6 6 6 8 11 7 7 4 7 7 9 10 11 11 11 11 10 9 10 10 9 11 10 9 9 7 7 8 8 9
8 8 12 13 14 16 15 13 11 8 5 4 1 3 6 8 6 7 8 8 11 11 11 11 12 12 13 13 13 13 13 12 12 11 10 10 10 11 10 9 8 7 7
8 9 9 12 14 15 16 14 12 10 9 8 6 6 6 7 6 7 12 13 9 11 14 14 14 13 14 15 14 13 13 13 12 12 13 12 12 12 11 11 10 9 10
9 8 8 9 14 14 15 13 13 12 12 10 9 8 8 10 12 11 10 10 11 12 14 15 15 15 15 15 15 14 13 13 13 13 13 14 15 14 12 14 12 12 11
7 7 7 9 10 10 13 14 14 14 12 11 10 10 10 10 9 11 11 10 13 15 15 16 17 17 16 15 15 16 17 18 17 15 16 16 15 16 15 15 15 17 19
6 7 7 8 9 10 12 14 15 14 13 13 12 13 12 11 10 12 12 14 16 17 18 17 17 18 18 17 18 18 18 18 19 17 16 16 17 16 17 17 16 17 15
6 5 6 8 10 11 12 14 14 14 13 12 12 13 13 13 13 14 15 15 16 17 17 18 17 18 19 17 18 19 19 18 18 19 19 19 20 19 18 18 18 20 19
4 4 8 9 9 11 14 14 14 14 14 14 13 14 14 15 17 17 17 17 18 19 19 19 19 20 21 19 20 20 19 20 21 22 22 21 22 22 21 21 21 21 20
7 6 11 11 11 14 16 16 15 14 15 15 15 16 18 18 18 20 20 20 20 21 19 19 20 21 21 21 20 20 19 19 22 21 22 22 22 22 22 23 21 20 22
7 10 12 11 12 16 16 15 14 15 16 19 18 19 19 19 20 19 20 21 22 22 22 24 25 25 24 25 23 22 22 22 20 19 19 21 20 22 25 24 24 24 22
12 14 13 13 17 17 16 14 16 20 23 20 21 22 22 21 18 19 21 22 22 23 24 25 26 26 24 21 21 22 23 24 24 23 22 23 19 20 23 22 21 23 20
13 14 13 15 19 17 12 18 21 22 21 23 23 23 23 23 21 21 19 18 18 20 23 20 19 21 19 19 19 20 21 22 23 21 23 24 21 21 22 23 21 19 19
14 15 14 19 18 13 19 21 21 20 23 23 22 22 21 23 20 22 21 19 20 22 20 19 19 21 21 21 21 20 21 21 21 22 19 13 22 23 23 19 18 14 14
16 12 15 15 16 20 24 23 20 22 21 20 19 21 20 21 22 22 21 22 23 22 23 24 25 23 22 25 23 21 22 23 22 19 21 20 17 16 12 19 23 18 14
12 16 15 17 20 21 22 23 22 20 19 21 19 18 20 21 19 20 23 23 22 23 25 27 27 25 25 26 26 26 26 25 23 23 20 18 18 17 16 13 21 22 19
Wind_Direction
197 191 189 186 184 184 184 187 183 178 171 162 159 154 133 107 90 80 78 71 70 68 59 60 57 48 46 43 41 36 31 28 25 75 80 65 65 66 64 63 59 58 56
166 175 187 189 190 188 188 188 188 187 186 189 191 179 157 137 115 97 93 85 79 74 69 62 59 56 50 47 41 41 38 31 29 26 14 14 82 51 58 53 51 46 42
184 176 180 191 192 192 192 191 192 192 190 190 182 162 156 150 146 134 110 99 91 89 80 75 66 57 48 44 39 37 38 29 34 40 37 16 16 346 20 49 49 45 45
176 182 182 184 197 199 194 194 193 194 193 192 192 191 194 188 194 170 140 116 108 101 93 84 73 61 52 47 41 35 36 35 28 10 39 52 1 342 313 61 46 41 44
180 180 185 192 199 195 192 192 191 192 193 196 201 209 213 207 176 167 163 149 127 115 109 97 70 51 43 37 30 30 34 38 37 30 360 23 9 351 324 293 348 17 27
186 162 165 178 190 192 189 187 187 188 192 196 200 210 209 190 182 183 183 179 163 137 123 100 66 39 32 30 22 18 14 29 33 29 22 7 14 40 332 291 324 330 324
143 159 154 162 179 183 184 183 185 186 193 198 200 206 205 200 202 204 205 196 201 206 181 104 31 17 18 17 13 10 5 5 358 349 338 344 288 258 246 247 276 302 331
98 132 156 168 176 181 182 183 187 189 191 194 195 194 194 200 207 212 214 220 209 207 232 302 329 337 340 351 356 347 339 332 305 305 304 287 272 278 265 252 218 321 269
45 47 46 64 141 176 182 187 187 188 194 198 197 197 196 194 197 203 210 213 217 233 264 280 291 307 314 317 315 308 290 301 299 293 290 283 275 278 264 244 239 202 300
56 47 46 43 60 86 144 168 181 187 193 198 199 198 197 198 197 203 211 224 247 250 263 277 287 297 304 302 298 292 273 254 250 250 262 274 276 292 269 253 244 229 223
71 55 48 46 57 71 76 84 107 152 181 200 201 200 199 205 206 214 228 238 246 260 273 286 296 302 303 297 289 282 274 249 240 250 261 271 285 276 269 257 256 249 237
70 66 61 54 54 55 53 58 72 96 96 138 178 175 191 209 240 258 242 239 264 282 280 290 293 295 295 292 290 285 271 262 261 264 272 274 275 274 274 261 252 248 242
66 56 49 42 43 44 41 38 34 29 48 96 114 255 278 280 266 262 238 235 261 268 275 280 285 285 283 283 282 281 278 270 268 268 266 267 260 268 268 259 252 247 242
50 48 46 33 31 35 36 34 28 20 7 354 339 322 323 308 249 251 267 273 267 268 275 281 286 282 279 279 278 275 271 266 261 258 259 256 259 264 261 255 257 260 257
60 55 46 24 26 25 27 19 20 16 6 357 343 330 309 285 284 280 263 264 270 276 285 288 288 285 277 277 279 280 270 257 257 260 262 261 256 264 258 253 255 255 260
65 50 50 27 15 14 10 3 4 1 358 349 341 334 329 319 293 287 278 271 279 287 287 286 285 280 276 275 274 270 270 257 261 266 268 265 266 252 254 252 249 247 244
42 34 19 12 357 8 2 360 356 354 357 353 347 338 332 319 305 293 290 287 286 285 283 283 283 281 279 279 277 272 270 263 260 261 270 272 268 259 253 254 256 257 256
41 24 6 352 350 353 353 352 356 356 352 348 344 337 332 327 321 313 308 304 300 295 290 286 283 281 279 277 277 273 274 274 268 261 266 269 269 263 252 252 256 252 264
10 339 342 338 344 353 349 340 338 344 344 345 337 334 328 321 316 310 306 302 297 292 288 285 285 284 283 281 277 276 276 275 272 268 265 273 268 258 249 249 253 256 256
360 347 345 344 341 347 347 343 339 333 340 334 322 323 322 314 310 308 306 302 298 293 288 283 284 288 284 282 279 274 274 269 270 269 266 268 265 256 245 247 251 241 243
336 343 342 340 344 341 340 342 342 340 334 327 322 319 316 312 310 309 304 300 296 293 287 285 288 290 288 285 278 273 270 266 266 262 259 262 267 250 246 240 240 235 246
340 339 333 336 339 339 336 334 328 324 321 320 316 313 313 311 304 302 301 297 294 292 290 290 290 291 293 286 277 271 265 263 259 255 253 253 259 249 246 247 250 233 228
328 330 326 330 329 325 325 322 317 320 319 314 311 310 310 309 306 302 301 299 295 294 293 286 283 284 283 279 278 274 270 267 268 262 252 249 250 246 246 244 241 229 232
318 321 328 322 313 314 315 312 315 312 313 310 309 310 307 306 303 300 299 294 292 291 286 281 276 274 274 271 269 267 264 264 266 269 272 281 245 240 242 246 245 211 234
309 320 316 308 309 312 313 314 310 313 310 306 305 302 299 300 301 297 291 291 290 285 277 271 265 260 260 264 270 265 257 256 259 262 263 263 257 260 255 244 209 205 194
324 322 316 310 306 306 303 305 310 312 306 306 302 301 302 298 296 296 295 295 290 289 286 285 284 285 280 278 274 268 258 258 256 247 238 238 237 235 232 213 185 201 195